| time (UTC) | temp F | wind direction | speed knots | gust knots | rain 1hr in | rain 24hr in | rain mn in | humidity % | barometer mb |
| 20260503021934 | 52 | 55 | 3.5 | 7.0 | 0.00 | 0.06 | 0.01 | 100 | 1009.4 |
| 20260503020934 | 52 | 58 | 3.5 | 6.1 | 0.00 | 0.06 | 0.01 | 100 | 1009.5 |
| 20260503015934 | 52 | 58 | 3.5 | 6.1 | 0.00 | 0.06 | 0.01 | 100 | 1009.5 |
| 20260503014934 | 52 | 56 | 4.3 | 7.0 | 0.00 | 0.06 | 0.01 | 100 | 1009.6 |
| 20260503013934 | 52 | 66 | 2.6 | 5.2 | 0.00 | 0.06 | 0.01 | 100 | 1009.6 |
| 20260503012934 | 52 | 56 | 3.5 | 7.0 | 0.01 | 0.06 | 0.01 | 100 | 1009.8 |
| 20260503011934 | 52 | 59 | 4.3 | 7.0 | 0.01 | 0.06 | 0.01 | 100 | 1009.8 |
| 20260503010934 | 52 | 60 | 4.3 | 7.0 | 0.01 | 0.06 | 0.01 | 100 | 1009.9 |
| 20260503005934 | 52 | 55 | 4.3 | 7.0 | 0.01 | 0.06 | 0.01 | 100 | 1010.0 |
| 20260503004934 | 52 | 58 | 3.5 | 5.2 | 0.01 | 0.06 | 0.01 | 100 | 1010.0 |
| 20260503003934 | 52 | 60 | 2.6 | 4.3 | 0.01 | 0.06 | 0.01 | 100 | 1010.1 |
| 20260503002934 | 52 | 64 | 3.5 | 6.1 | 0.00 | 0.05 | 0.00 | 100 | 1010.1 |
| 20260503001934 | 52 | 59 | 2.6 | 4.3 | 0.00 | 0.05 | 0.00 | 100 | 1010.2 |
| 20260503000923 | 52 | 64 | 2.6 | 4.3 | 0.00 | 0.05 | 0.00 | 100 | 1010.3 |
| 20260502235923 | 52 | 71 | 3.5 | 6.1 | 0.00 | 0.05 | 0.00 | 100 | 1010.3 |
| 20260502234923 | 52 | 92 | 2.6 | 7.8 | 0.00 | 0.05 | 0.00 | 100 | 1010.3 |
| 20260502233923 | 52 | 78 | 2.6 | 5.2 | 0.00 | 0.05 | 0.00 | 100 | 1010.3 |
| 20260502232922 | 52 | 89 | 2.6 | 6.1 | 0.00 | 0.05 | 0.00 | 100 | 1010.4 |
| 20260502231923 | 52 | 70 | 3.5 | 7.0 | 0.00 | 0.05 | 0.00 | 100 | 1010.4 |
| 20260502230922 | 52 | 115 | 2.6 | 4.3 | 0.00 | 0.05 | 0.05 | 100 | 1010.5 |
| 20260502225924 | 52 | 123 | 2.6 | 3.5 | 0.00 | 0.05 | 0.05 | 100 | 1010.5 |
| 20260502224922 | 52 | 114 | 2.6 | 5.2 | 0.00 | 0.05 | 0.05 | 100 | 1010.5 |
| 20260502223922 | 52 | 127 | 2.6 | 6.1 | 0.00 | 0.05 | 0.05 | 100 | 1010.5 |
| 20260502222922 | 52 | 125 | 4.3 | 7.8 | 0.00 | 0.05 | 0.05 | 100 | 1010.6 |
| 20260502221922 | 52 | 127 | 3.5 | 6.1 | 0.00 | 0.05 | 0.05 | 100 | 1010.6 |
| 20260502220922 | 52 | 128 | 4.3 | 7.8 | 0.00 | 0.05 | 0.05 | 100 | 1010.7 |
| 20260502215922 | 52 | 130 | 4.3 | 8.7 | 0.00 | 0.05 | 0.05 | 100 | 1010.7 |
| 20260502214922 | 52 | 129 | 4.3 | 7.8 | 0.00 | 0.05 | 0.05 | 100 | 1010.7 |
| 20260502213922 | 52 | 133 | 4.3 | 7.0 | 0.00 | 0.05 | 0.05 | 100 | 1010.6 |
| 20260502212922 | 52 | 132 | 5.2 | 8.7 | 0.00 | 0.05 | 0.05 | 100 | 1010.7 |
| 20260502211922 | 52 | 129 | 5.2 | 7.8 | 0.00 | 0.05 | 0.05 | 100 | 1010.7 |
| 20260502210922 | 52 | 131 | 5.2 | 7.8 | 0.00 | 0.05 | 0.05 | 100 | 1010.7 |
| 20260502205922 | 52 | 130 | 5.2 | 9.6 | 0.00 | 0.05 | 0.05 | 100 | 1010.7 |
| 20260502204922 | 52 | 128 | 5.2 | 10.4 | 0.00 | 0.05 | 0.05 | 100 | 1010.7 |
| 20260502203922 | 52 | 130 | 5.2 | 8.7 | 0.00 | 0.05 | 0.05 | 100 | 1010.7 |
| 20260502202922 | 52 | 135 | 5.2 | 8.7 | 0.00 | 0.05 | 0.05 | 100 | 1010.7 |
| 20260502201922 | 52 | 129 | 5.2 | 9.6 | 0.00 | 0.05 | 0.05 | 100 | 1010.6 |
| 20260502200922 | 52 | 134 | 4.3 | 7.8 | 0.00 | 0.05 | 0.05 | 100 | 1010.6 |
| 20260502195922 | 52 | 129 | 5.2 | 8.7 | 0.00 | 0.05 | 0.05 | 100 | 1010.6 |
| 20260502194922 | 52 | 145 | 5.2 | 8.7 | 0.00 | 0.05 | 0.05 | 100 | 1010.7 |
| 20260502193922 | 52 | 133 | 5.2 | 9.6 | 0.00 | 0.05 | 0.05 | 100 | 1010.6 |
| 20260502192922 | 52 | 133 | 5.2 | 8.7 | 0.00 | 0.05 | 0.05 | 100 | 1010.7 |
| 20260502191921 | 52 | 131 | 4.3 | 8.7 | 0.00 | 0.05 | 0.05 | 100 | 1010.7 |
| 20260502190921 | 52 | 135 | 6.1 | 11.3 | 0.00 | 0.05 | 0.05 | 100 | 1010.7 |
| 20260502185921 | 52 | 137 | 5.2 | 10.4 | 0.01 | 0.05 | 0.05 | 100 | 1010.7 |
| 20260502184921 | 52 | 137 | 4.3 | 9.6 | 0.01 | 0.05 | 0.05 | 100 | 1010.8 |
| 20260502183921 | 52 | 133 | 5.2 | 7.8 | 0.01 | 0.05 | 0.05 | 100 | 1010.7 |
| 20260502182921 | 52 | 134 | 3.5 | 7.0 | 0.01 | 0.05 | 0.05 | 100 | 1010.7 |
| 20260502181921 | 52 | 134 | 3.5 | 7.8 | 0.01 | 0.05 | 0.05 | 100 | 1010.8 |
| 20260502180921 | 52 | 134 | 3.5 | 6.1 | 0.01 | 0.05 | 0.05 | 100 | 1010.8 |
| 20260502163921 | 52 | 78 | 4.3 | 9.6 | 0.01 | 0.03 | 0.03 | 100 | 1011.2 |
| 20260502162921 | 52 | 80 | 4.3 | 7.0 | 0.01 | 0.03 | 0.03 | 100 | 1011.2 |
| 20260502161921 | 52 | 63 | 4.3 | 7.0 | 0.01 | 0.03 | 0.03 | 100 | 1011.2 |
| 20260502160921 | 52 | 65 | 4.3 | 9.6 | 0.01 | 0.03 | 0.03 | 100 | 1011.3 |
| 20260502151924 | 52 | 80 | 3.5 | 6.1 | 0.01 | 0.02 | 0.02 | 100 | 1011.9 |
| 20260502150924 | 52 | 125 | 3.5 | 7.0 | 0.01 | 0.02 | 0.02 | 100 | 1012.0 |
| 20260502122924 | 52 | 149 | 9.6 | 14.8 | 0.00 | 0.00 | 0.00 | 100 | 1013.6 |
| 20260502121924 | 52 | 152 | 9.6 | 14.8 | 0.00 | 0.00 | 0.00 | 100 | 1013.6 |
| 20260502120924 | 53 | 150 | 9.6 | 13.9 | 0.00 | 0.00 | 0.00 | 100 | 1013.7 |
| 20260502115924 | 53 | 148 | 7.8 | 12.2 | 0.00 | 0.00 | 0.00 | 100 | 1013.8 |
| 20260502114924 | 53 | 149 | 8.7 | 12.2 | 0.00 | 0.00 | 0.00 | 100 | 1013.9 |
| 20260502113923 | 53 | 151 | 9.6 | 13.0 | 0.00 | 0.00 | 0.00 | 100 | 1013.9 |
| 20260502112923 | 53 | 150 | 9.6 | 13.0 | 0.00 | 0.00 | 0.00 | 100 | 1014.0 |
| 20260502111923 | 53 | 152 | 8.7 | 12.2 | 0.00 | 0.00 | 0.00 | 100 | 1013.9 |
| 20260502110923 | 53 | 153 | 8.7 | 11.3 | 0.00 | 0.00 | 0.00 | 100 | 1014.0 |
| 20260502105923 | 53 | 154 | 8.7 | 11.3 | 0.00 | 0.00 | 0.00 | 100 | 1014.2 |
| 20260502104923 | 53 | 151 | 9.6 | 12.2 | 0.00 | 0.00 | 0.00 | 100 | 1014.2 |
| 20260502103923 | 53 | 152 | 10.4 | 13.9 | 0.00 | 0.00 | 0.00 | 100 | 1014.1 |
| 20260502102923 | 53 | 151 | 9.6 | 13.0 | 0.00 | 0.00 | 0.00 | 100 | 1014.1 |
| 20260502101923 | 53 | 152 | 8.7 | 13.0 | 0.00 | 0.00 | 0.00 | 100 | 1014.1 |
| 20260502100923 | 53 | 149 | 8.7 | 14.8 | 0.00 | 0.00 | 0.00 | 100 | 1014.1 |
| 20260502090923 | 52 | 145 | 7.0 | 10.4 | 0.00 | 0.00 | 0.00 | 100 | 1014.5 |
| 20260502070922 | 52 | 150 | 7.0 | 9.6 | 0.00 | 0.00 | 0.00 | 100 | 1014.7 |
| 20260502065922 | 52 | 153 | 7.8 | 10.4 | 0.00 | 0.00 | 0.00 | 100 | 1014.8 |
| 20260502064922 | 52 | 147 | 6.1 | 9.6 | 0.00 | 0.00 | 0.00 | 100 | 1014.7 |
| 20260502063922 | 52 | 151 | 8.7 | 11.3 | 0.00 | 0.00 | 0.00 | 100 | 1014.8 |
| 20260502062922 | 52 | 155 | 7.8 | 12.2 | 0.00 | 0.00 | 0.00 | 100 | 1014.8 |
| 20260502061922 | 52 | 153 | 9.6 | 14.8 | 0.00 | 0.00 | 0.00 | 100 | 1014.8 |
| 20260502060922 | 52 | 156 | 8.7 | 13.0 | 0.00 | 0.00 | 0.00 | 100 | 1014.8 |
| 20260502055922 | 52 | 152 | 9.6 | 13.0 | 0.00 | 0.00 | 0.00 | 100 | 1014.7 |
| 20260502054922 | 52 | 152 | 8.7 | 11.3 | 0.00 | 0.00 | 0.00 | 100 | 1014.7 |
| 20260502053922 | 52 | 151 | 7.0 | 10.4 | 0.00 | 0.00 | 0.00 | 100 | 1014.6 |
| 20260502052922 | 52 | 155 | 7.8 | 11.3 | 0.00 | 0.00 | 0.00 | 100 | 1014.7 |
| 20260502051922 | 52 | 155 | 8.7 | 12.2 | 0.00 | 0.00 | 0.00 | 100 | 1014.7 |
| 20260502050922 | 52 | 155 | 9.6 | 13.0 | 0.00 | 0.00 | 0.00 | 100 | 1014.7 |
| 20260502045922 | 51 | 156 | 7.8 | 13.0 | 0.00 | 0.00 | 0.00 | 100 | 1014.8 |
| 20260502044922 | 52 | 158 | 8.7 | 12.2 | 0.00 | 0.00 | 0.00 | 100 | 1014.8 |
| 20260502043922 | 52 | 157 | 7.0 | 11.3 | 0.00 | 0.00 | 0.00 | 100 | 1014.9 |
| 20260502042922 | 52 | 164 | 5.2 | 9.6 | 0.00 | 0.00 | 0.00 | 100 | 1014.9 |
| 20260502041922 | 52 | 159 | 7.8 | 12.2 | 0.00 | 0.00 | 0.00 | 100 | 1015.1 |
| 20260502040921 | 52 | 165 | 4.3 | 9.6 | 0.00 | 0.00 | 0.00 | 100 | 1015.1 |
| 20260502035921 | 52 | 159 | 7.0 | 12.2 | 0.00 | 0.00 | 0.00 | 100 | 1015.3 |
| 20260502034921 | 52 | 157 | 7.8 | 11.3 | 0.00 | 0.00 | 0.00 | 100 | 1015.3 |
| 20260502033921 | 52 | 156 | 8.7 | 14.8 | 0.00 | 0.00 | 0.00 | 100 | 1015.4 |
| 20260502032921 | 52 | 158 | 9.6 | 13.9 | 0.00 | 0.00 | 0.00 | 100 | 1015.5 |
| 20260502031922 | 52 | 157 | 7.8 | 11.3 | 0.00 | 0.00 | 0.00 | 100 | 1015.6 |
| 20260502030921 | 52 | 173 | 3.5 | 7.8 | 0.00 | 0.00 | 0.00 | 100 | 1015.6 |
| 20260502025921 | 52 | 171 | 3.5 | 7.0 | 0.00 | 0.00 | 0.00 | 100 | 1015.7 |
| 20260502024921 | 52 | 166 | 3.5 | 7.0 | 0.00 | 0.00 | 0.00 | 100 | 1015.8 |
| 20260502023921 | 52 | 158 | 6.1 | 9.6 | 0.00 | 0.00 | 0.00 | 100 | 1015.8 |
| 20260502022921 | 52 | 159 | 6.1 | 9.6 | 0.00 | 0.00 | 0.00 | 100 | 1015.9 |